Regional Weather Roundup
Issued by NWS

Home | Current Version | Previous Version | Text Only | Print | Product List | Glossary Off
Versions: 1 2 3 4 5 6 7 8 9 10 11 12 13 14 15 16 17 18 19 20 21 22 23 24 25 26 27 28

000
ASUS45 KCYS 282310
RWRWY

WYOMING REGIONAL WEATHER ROUNDUP
NATIONAL WEATHER SERVICE CHEYENNE WY
500 PM MDT SUN AUG 28 2016

NOTE:  "FAIR" INDICATES FEW OR NO CLOUDS BELOW 12,000 FEET
WITH NO SIGNIFICANT WEATHER AND/OR OBSTRUCTIONS TO VISIBILITY.

WYZ001-290000-
YELLOWSTONE NATIONAL PARK

CITY           SKY/WX    TMP DP  RH WIND       PRES   REMARKS
LK YELLOWSTONE   N/A     72  26  18 W8        30.35S
W YELLOWSTONE  NOT AVBL

$$
WYZ002>013-054>058-071-098>099-290000-
NORTHERN WYOMING

CITY           SKY/WX    TMP DP  RH WIND       PRES   REMARKS
JACKSON        SUNNY     77  28  16 W12G17    30.25R
CODY           FAIR      81  34  18 NE9       30.10R
GREYBULL       FAIR      88  27  11 SE6       30.02F
WORLAND        FAIR      89  28  11 N6        30.04S
SHERIDAN       FAIR      89  33  13 N8        30.04R
BUFFALO        FAIR      87  27  11 VRB5      30.11R
GILLETTE       FAIR      89  27  10 N8        30.05R
HULETT         FAIR      88  36  15 NE9       30.05R
NEWCASTLE      FAIR      88  28  11 CALM      30.04S

$$
WYZ014>020-022>026-101>103-290000-
CENTRAL WYOMING

CITY           SKY/WX    TMP DP  RH WIND       PRES   REMARKS
BIG PINEY      FAIR      80  26  13 NW7       30.28S
PINEDALE       FAIR      77  25  14 NW13G20   30.29S
DUBOIS         FAIR      77  23  13 NW14G21   30.26S
LANDER         FAIR      87  29  12 VRB6      30.11S
RIVERTON       FAIR      84  28  13 SE6       30.13S
CASPER         FAIR      86  25  11 W10       30.11S
DOUGLAS        FAIR      88  24  10 NW7       30.10S

$$
WYZ021-027>030-104>119-290000-
SOUTHERN WYOMING

CITY           SKY/WX    TMP DP  RH WIND       PRES   REMARKS
EVANSTON       FAIR      81  23  11 NW13G22   30.30F
FORT BRIDGER   FAIR      83  24  12 NW13G22   30.31S
ROCK SPRINGS   FAIR      82  22  11 N10       30.24F
DIXON          FAIR      82  25  12 CALM      30.25F
RAWLINS        FAIR      82  19   9 W10       30.24S
SARATOGA       FAIR      79  25  13 S7G16     30.27S
LARAMIE        FAIR      78  27  15 NE13      30.27R
CHEYENNE       PTSUNNY   76  42  29 S18       30.20R
TORRINGTON     FAIR      87  36  16 SE12      30.05R
PINE BLUFFS    FAIR      77  43  29 E7        30.16S

$$




USA.gov is the U.S. government's official web portal to all federal, state and local government web resources and services.